This is the latest recevied weather packets stored in our database for station/object N3HBJ. If no packets are shown the sender has not sent any weather packets the latest 10 day(s).
| Time | Temp. | Humidity | Pressure | Rain* | Wind** | Luminosity | Snow |
|---|---|---|---|---|---|---|---|
| 1777526726 | 9.44° C | 90% | 1008.3 hPa | 0 mm | - | 0 W/m² | - |
| 1777525810 | 10° C | 90% | 1008.6 hPa | 0.25 mm | - | 0 W/m² | - |
| 1777525508 | 10° C | 90% | 1008.4 hPa | 0.25 mm | - | 0 W/m² | - |
| 1777524609 | 10.56° C | 90% | 1008.4 hPa | 0.25 mm | - | 0 W/m² | - |
| 1777524302 | 10.56° C | 90% | 1008.3 hPa | 0.25 mm | - | 0 W/m² | - |
| 1777524004 | 10.56° C | 90% | 1008.2 hPa | 0.25 mm | - | 0 W/m² | - |
| 1777522800 | 11.11° C | 91% | 1007.8 hPa | 0 mm | - | 0 W/m² | - |
| 1777522500 | 11.11° C | 91% | 1007.7 hPa | 0 mm | - | 0 W/m² | - |
| 1777520095 | 11.67° C | 92% | 1007.5 hPa | 0 mm | - | 0 W/m² | - |
| 1777518891 | 11.67° C | 92% | 1007.6 hPa | 0.51 mm | - | 0 W/m² | - |
| 1777518595 | 11.67° C | 92% | 1007.5 hPa | 1.02 mm | - | 0 W/m² | - |
| 1777517091 | 12.22° C | 93% | 1007.5 hPa | 6.6 mm | - | 0 W/m² | - |
| 1777515285 | 12.22° C | 94% | 1007.5 hPa | 6.1 mm | - | 0 W/m² | - |
| 1777511380 | 11.67° C | 93% | 1007.1 hPa | 0 mm | - | 0 W/m² | - |
| 1777511225 | 11.67° C | 93% | 1007.2 hPa | 0 mm | - | 0 W/m² | - |
| 1777508964 | 12.22° C | 92% | 1006.7 hPa | 0 mm | - | 0 W/m² | - |
| 1777507456 | 12.22° C | 92% | 1006.7 hPa | 0.25 mm | - | 0 W/m² | - |
| 1777505207 | 12.22° C | 92% | 1006.3 hPa | 1.78 mm | - | 49 W/m² | - |
| 1777503853 | 12.22° C | 92% | 1006.3 hPa | 5.59 mm | - | 69 W/m² | - |
| 1777501456 | 11.67° C | 91% | 1006.5 hPa | 6.86 mm | - | 65 W/m² | - |
| 1777499955 | 11.67° C | 90% | 1005.4 hPa | 3.3 mm | - | 18 W/m² | - |
| 1777499061 | 11.67° C | 91% | 1005.3 hPa | 2.79 mm | - | 28 W/m² | - |
| 1777495439 | 11.67° C | 90% | 1006.3 hPa | 0.51 mm | - | 28 W/m² | - |
| 1777494842 | 11.67° C | 90% | 1006.3 hPa | 0.51 mm | - | 39 W/m² | - |
| 1777491374 | 12.22° C | 89% | 1007.2 hPa | 0.25 mm | - | 53 W/m² | - |
* Rain latest hour (hover to see other rain measurements)
** Current wind speed in m/s (hover to see current wind gust speed)